Theta_e
299 299 298 297 297 297 296 296 296 296 295 295 294 294 294 294 293 293 292 292 291 291 290 290 290 289 289 289 289 288 288 288 288 288 287 287 287 287 287 287 287 287 287 287 287 287 287 287 287 287 287 288 287 288 288 288 288 288 288 288 288 288
299 298 298 297 297 296 296 295 295 295 294 294 294 293 293 292 292 291 291 290 290 289 289 289 289 288 288 288 288 288 288 287 287 287 287 287 287 287 287 287 287 287 286 286 286 286 286 287 287 287 287 287 287 287 287 287 287 288 288 288 288 288
298 298 297 296 296 296 295 295 294 294 294 293 293 292 292 291 291 290 290 289 289 288 288 288 288 288 288 288 288 287 287 287 287 287 287 286 286 286 286 286 286 286 286 286 286 286 286 286 286 286 286 287 287 287 287 287 287 287 287 287 287 288
298 297 297 296 296 296 295 294 294 293 293 292 292 291 291 290 290 289 289 288 288 288 288 288 288 288 287 287 287 287 287 287 287 287 286 286 286 286 286 286 286 286 286 286 286 286 286 286 286 286 286 286 287 287 287 287 287 287 287 287 287 287
298 297 297 297 297 296 295 294 294 293 292 292 291 291 290 290 289 289 288 288 288 288 287 287 287 287 287 287 287 287 287 287 287 287 287 287 286 286 286 286 286 286 286 286 286 286 286 286 286 286 286 286 286 286 286 287 287 287 287 287 287 287
298 297 297 297 297 296 295 294 293 293 292 291 291 290 289 289 289 288 288 287 287 287 287 287 287 287 287 287 287 288 288 288 288 287 287 287 287 287 287 287 286 286 286 286 286 286 286 286 286 286 286 286 286 286 286 286 286 286 286 287 287 287
298 298 298 297 297 296 295 295 294 293 292 291 290 289 289 288 288 288 287 287 287 287 287 287 288 288 288 288 288 288 288 288 288 288 288 288 288 288 288 287 287 286 286 286 286 285 285 285 285 285 285 285 285 285 286 286 286 286 286 286 286 286
299 298 298 297 296 296 296 295 294 293 292 291 290 289 288 288 288 287 287 287 287 287 287 288 288 288 288 288 288 288 288 288 288 288 288 288 288 288 288 288 287 287 286 286 285 285 285 285 285 285 285 285 285 285 285 285 285 285 286 286 286 286
300 299 298 297 296 296 296 295 295 293 292 291 290 289 288 288 287 287 287 287 287 287 288 288 288 288 288 288 288 288 288 288 288 288 288 288 288 288 288 288 287 287 286 285 285 285 285 285 285 285 285 285 285 285 285 285 285 285 285 285 285 285
300 299 298 297 296 296 296 295 295 293 292 291 290 290 289 288 287 287 287 287 287 287 288 288 288 289 289 289 289 288 288 288 288 288 288 288 288 288 288 288 287 287 286 285 285 285 285 284 284 284 284 284 284 284 284 284 285 285 285 285 285 285
300 299 299 297 296 296 296 295 295 294 292 291 290 290 289 288 287 287 287 287 287 288 288 288 289 289 289 289 289 289 288 288 288 288 288 288 288 288 288 288 287 287 286 285 285 285 284 284 284 284 284 284 284 284 284 284 284 284 285 285 285 285
299 299 298 297 297 297 296 296 295 294 293 291 290 290 289 288 287 287 287 287 288 288 288 288 289 289 289 289 289 289 288 288 288 288 288 288 288 288 288 288 287 287 286 285 285 284 284 284 284 283 283 283 283 283 284 284 284 284 284 284 285 285
299 298 298 298 298 298 296 296 295 294 293 291 291 290 289 287 287 287 287 287 288 288 288 288 289 289 289 289 289 289 289 288 288 288 288 288 288 288 288 288 287 287 286 285 284 284 284 283 283 283 283 283 283 283 283 284 284 284 284 284 284 284
299 298 298 298 298 297 296 296 295 294 293 292 291 289 288 287 287 287 288 288 288 288 289 289 289 289 289 289 289 289 289 288 288 288 288 288 287 287 287 287 287 286 285 284 284 284 283 283 283 283 282 283 283 283 283 283 283 283 283 283 283 283
296 296 296 296 297 297 296 295 294 293 293 292 290 289 288 288 288 288 288 288 288 289 289 289 289 289 289 289 289 289 288 288 288 288 288 287 287 287 287 287 286 285 284 284 284 283 283 283 282 282 282 283 283 282 282 282 283 283 283 282 282 281
294 294 294 295 296 296 295 294 294 293 292 291 290 289 288 288 288 288 289 289 289 289 289 289 289 289 289 289 289 288 288 288 288 287 287 287 287 287 286 286 285 284 284 283 283 283 283 282 282 282 282 282 282 282 282 282 282 282 282 281 281 280
294 294 294 294 295 295 295 294 293 293 292 290 290 289 289 289 289 289 289 289 289 289 289 289 289 289 289 288 288 288 288 288 287 287 287 287 287 286 286 285 284 284 283 283 282 282 282 282 282 282 282 282 282 281 281 281 281 281 281 281 280 279
293 293 293 294 294 294 294 293 293 292 291 291 290 290 290 290 290 290 289 289 289 289 289 289 289 289 288 288 288 288 287 287 287 287 287 287 286 286 285 284 283 283 283 282 282 282 282 282 282 282 282 282 281 281 281 281 281 280 280 280 279 278
292 292 292 292 292 292 292 292 291 291 291 291 291 291 291 291 291 290 290 289 289 289 289 289 288 288 288 288 287 287 287 287 287 287 287 286 286 285 285 284 283 283 282 282 282 282 282 282 282 282 282 281 281 280 280 280 280 279 279 279 278 277
292 291 291 291 291 291 290 290 290 290 290 290 290 290 290 290 290 290 289 289 289 289 289 288 288 288 287 287 287 287 287 287 287 287 286 286 286 285 284 283 283 282 282 282 281 281 282 282 282 281 281 281 280 279 279 279 279 278 278 278 277 276
291 291 291 290 290 290 290 290 289 289 289 289 289 289 289 289 289 289 289 289 289 288 288 288 288 287 287 287 287 287 287 287 287 286 286 285 285 284 283 282 282 282 281 281 281 281 281 282 281 281 280 280 279 278 278 278 278 278 277 277 277 276
291 291 291 290 290 290 290 290 289 289 289 288 288 289 289 289 289 289 289 288 288 288 288 287 287 287 287 287 287 287 286 286 286 286 285 284 284 283 282 282 281 281 281 281 281 281 281 281 281 281 280 279 278 278 277 277 277 277 277 277 276 275
291 291 291 291 291 290 290 290 290 289 289 288 288 288 288 288 288 288 288 288 288 288 287 287 287 287 287 287 286 286 286 286 285 285 284 283 283 282 281 281 281 281 281 281 281 281 281 281 281 280 279 279 278 277 277 277 276 276 276 276 274 272
291 291 291 291 291 290 290 290 290 289 289 289 289 288 288 288 288 288 288 288 288 287 287 287 287 286 286 286 286 286 286 285 285 284 283 282 282 281 281 281 280 280 281 281 281 281 281 280 280 279 279 278 277 277 277 276 276 276 275 274 273 272
291 290 290 290 290 290 290 290 290 289 289 289 289 288 288 288 288 288 288 287 287 287 287 286 286 286 286 286 286 286 285 285 284 283 282 281 281 281 280 280 280 280 280 281 281 281 280 280 279 279 278 278 277 277 277 276 276 275 274 273 272 272
290 290 290 290 290 290 290 290 289 289 289 288 288 288 288 288 288 287 287 287 287 286 286 286 286 286 286 285 285 285 285 284 283 282 281 280 280 280 280 280 280 280 280 281 281 280 280 279 279 278 278 277 277 277 277 276 275 274 273 272 272 271
290 290 290 290 290 290 290 289 289 289 288 288 288 288 288 288 287 287 287 286 286 286 286 286 285 285 285 285 284 284 284 283 282 281 280 280 279 279 279 279 279 279 280 280 280 280 279 279 278 278 277 277 277 277 276 276 275 274 272 271 271 271
290 290 290 290 290 290 290 289 289 288 288 288 288 288 288 287 287 287 286 286 286 285 285 285 285 285 284 284 284 283 282 281 281 280 280 279 279 278 279 279 279 279 279 279 279 279 279 278 278 277 277 277 277 276 276 276 275 273 271 271 271 271
290 290 290 290 290 290 289 289 288 288 288 288 288 288 287 287 286 286 286 285 285 285 285 285 284 284 284 283 283 282 281 280 280 280 279 279 278 278 278 278 278 278 278 278 278 278 278 278 277 277 276 276 276 276 275 274 272 272 271 271 271 271
290 290 290 290 290 290 289 288 288 288 288 288 288 287 287 287 286 286 285 285 285 285 284 284 284 284 283 282 282 281 280 280 279 279 279 278 278 278 278 278 278 277 277 277 277 277 277 277 276 276 275 275 274 273 272 271 271 271 271 271 272 272
290 290 290 290 290 289 289 288 288 288 288 288 287 287 287 286 286 285 285 285 284 284 284 284 283 283 283 282 281 280 279 279 279 279 278 278 277 277 277 277 277 277 276 276 276 276 275 275 275 275 274 274 272 271 271 271 271 271 271 272 272 272
290 290 290 290 290 289 288 288 288 288 288 288 287 287 286 286 286 285 285 284 284 284 283 283 283 282 281 281 280 279 279 279 278 278 278 277 277 276 276 276 276 276 275 275 275 274 273 273 274 274 274 274 272 271 270 270 270 270 271 272 272 272
290 290 290 290 289 289 288 288 288 288 288 287 287 286 286 286 285 285 284 284 283 283 283 282 282 281 280 279 279 279 279 279 278 277 276 276 276 276 276 275 275 275 274 273 273 273 273 273 274 274 274 273 272 270 270 270 271 271 272 272 272 272
290 290 290 290 289 288 288 288 288 288 288 287 286 286 285 285 284 284 283 283 283 282 282 281 281 280 279 279 279 279 279 279 279 278 277 276 275 276 275 275 275 274 274 273 273 273 273 273 273 274 273 272 270 269 270 271 273 273 273 273 273 272
290 289 289 289 289 288 288 288 288 288 287 287 286 285 285 284 284 283 283 282 282 282 281 280 280 279 279 278 278 278 278 278 278 278 278 277 276 275 275 275 274 274 274 273 273 273 273 273 273 273 272 270 269 270 271 272 273 273 272 272 272 272
289 289 289 289 288 288 288 288 288 287 287 286 286 285 284 283 283 283 282 282 281 281 280 279 279 278 278 278 278 278 278 277 277 277 277 277 277 275 274 274 274 274 274 274 273 273 273 273 273 272 271 270 270 271 271 272 272 272 272 272 271 271
289 289 289 288 288 287 288 287 287 286 286 286 285 284 284 283 282 282 282 281 281 280 279 279 278 278 278 278 277 277 277 276 276 276 276 276 276 275 274 274 274 273 273 274 273 273 273 273 272 272 271 270 270 271 271 272 272 273 273 272 272 271
289 288 288 288 287 287 287 286 286 285 285 285 284 284 283 282 282 281 281 280 280 279 279 278 278 278 277 277 277 276 276 276 275 275 275 274 274 274 274 273 273 273 273 273 273 273 272 272 272 272 271 271 270 271 271 272 272 272 273 272 272 271
Wind_Speed
21 19 17 16 14 13 11 10 9 9 9 9 9 9 8 7 7 7 8 8 8 8 8 7 7 7 7 6 6 6 5 6 6 6 7 7 8 8 9 9 10 10 11 11 12 13 14 15 16 17 18 19 20 21 23 24 25 27 27 28 30 31
22 20 18 16 15 14 13 12 11 11 11 12 12 11 10 10 10 10 10 10 9 9 8 8 7 7 6 5 5 5 5 6 7 8 9 9 9 10 10 11 11 12 12 13 14 14 15 16 17 19 20 21 22 22 24 25 26 27 28 29 31 33
23 21 19 17 16 15 14 14 13 13 14 14 14 13 13 13 12 12 11 10 10 9 8 7 7 6 6 5 5 6 7 8 9 10 11 12 12 13 13 14 15 15 16 16 17 18 18 19 20 21 22 23 24 25 26 27 28 28 29 30 30 31
24 23 21 20 18 17 16 16 16 16 16 16 16 15 14 14 13 12 11 11 10 9 8 7 6 5 5 5 6 8 9 11 12 13 14 15 15 16 17 18 18 19 19 20 20 21 22 23 23 24 26 27 27 28 29 30 31 31 32 32 33 33
25 24 23 21 20 18 18 18 18 17 17 18 17 16 15 15 14 13 12 11 9 8 7 6 5 5 6 7 8 10 11 13 14 15 16 17 18 20 21 21 22 22 23 23 23 24 25 26 27 27 29 30 31 32 32 33 34 34 35 35 36 36
27 27 25 23 22 20 20 19 19 18 19 19 18 17 16 15 13 12 11 10 8 7 6 6 6 7 8 9 10 11 13 14 16 17 19 20 22 23 24 25 26 26 26 27 27 28 28 29 30 31 32 33 34 35 35 36 36 37 37 38 38 39
31 30 28 26 24 22 20 19 19 19 20 19 19 18 16 15 13 12 10 9 8 7 7 7 8 8 9 10 11 13 14 16 18 20 22 23 24 26 26 27 29 29 29 30 30 31 31 32 33 34 35 36 36 38 38 39 39 39 40 40 41 42
33 32 31 29 26 24 21 20 19 20 20 20 19 18 17 15 13 12 11 10 9 9 9 9 9 10 11 12 13 15 16 19 21 23 24 26 26 27 28 28 29 30 30 31 31 32 33 34 35 36 37 38 39 39 40 41 41 42 42 42 43 44
34 33 32 31 28 25 22 20 20 20 21 21 20 19 17 15 15 14 12 12 11 11 11 11 11 12 13 14 16 17 19 21 23 25 27 28 28 29 29 29 30 30 31 31 32 33 34 35 36 37 38 39 40 41 42 42 43 43 43 43 44 44
35 33 32 31 29 26 23 21 21 21 22 22 20 19 18 17 16 16 14 14 14 14 13 13 13 14 15 16 18 19 21 23 25 28 30 30 31 31 31 31 32 32 32 32 33 34 35 36 37 38 39 40 41 42 43 43 44 44 44 44 45 45
37 35 33 31 28 26 23 22 22 23 23 23 22 21 19 18 18 18 16 16 16 16 16 15 15 15 17 18 20 21 23 25 27 30 31 32 32 33 33 33 34 34 34 34 34 35 36 37 38 40 41 42 43 43 44 44 45 45 46 46 46 47
35 35 33 30 27 26 25 24 23 24 24 23 23 22 20 20 20 19 18 18 18 18 18 18 17 18 19 20 22 23 24 26 28 31 33 33 33 34 34 35 36 36 36 36 36 37 38 39 40 41 41 42 43 44 44 45 45 46 47 48 49 49
26 27 27 26 25 26 26 24 23 23 24 23 23 22 21 21 20 19 19 19 20 20 21 20 20 21 22 22 23 25 25 27 29 32 34 34 35 35 35 36 37 37 37 37 38 39 40 41 41 41 42 42 42 44 44 46 46 47 48 49 50 52
16 17 18 18 20 22 23 23 23 23 23 23 22 21 21 21 21 21 21 21 22 23 24 23 24 24 24 25 25 26 26 28 30 32 34 35 36 36 37 37 37 37 38 39 40 41 41 41 41 41 42 42 42 43 44 46 47 48 49 50 51 52
11 12 13 14 16 18 19 20 21 21 21 20 20 20 21 22 22 23 23 24 25 26 26 26 27 27 27 27 27 27 27 28 30 33 35 36 37 37 38 38 38 38 39 40 41 41 41 41 41 41 42 42 43 43 44 45 47 48 49 50 50 51
12 13 14 15 16 16 15 17 19 19 18 18 19 21 22 23 24 25 26 27 28 29 29 29 29 29 29 29 28 28 28 29 31 33 35 36 37 38 38 38 38 38 39 40 41 42 41 41 41 41 41 42 43 43 44 45 47 48 48 49 49 50
14 15 16 17 17 16 16 17 18 17 17 18 20 21 23 25 27 28 29 30 31 32 32 31 31 30 30 29 28 28 29 30 33 34 35 36 37 38 38 38 39 39 40 41 41 41 41 41 41 41 41 42 42 43 44 45 46 47 48 49 49 48
14 15 16 16 16 16 16 16 16 15 16 18 21 23 26 28 29 31 32 32 33 32 32 32 31 31 30 29 28 28 30 32 34 35 36 37 38 39 39 39 39 40 41 41 41 41 41 41 40 40 41 42 42 43 44 45 46 47 48 48 48 47
13 13 14 15 15 14 13 13 13 15 17 20 23 25 27 29 30 31 31 31 31 30 30 31 31 30 29 28 28 29 31 33 35 36 37 38 39 39 39 39 40 41 41 41 41 41 41 41 40 40 40 41 42 42 43 45 46 47 47 47 46 46
12 12 13 14 13 12 11 11 13 16 19 22 24 25 26 27 28 28 28 28 28 28 29 30 30 29 29 28 29 31 33 35 36 37 38 39 40 40 40 40 40 41 41 40 40 40 41 41 40 39 40 41 40 41 42 44 45 46 46 46 45 44
12 12 14 14 12 11 11 13 14 16 18 20 22 24 25 25 26 27 27 28 28 29 29 29 29 29 28 29 31 33 35 36 37 37 38 39 40 40 39 40 40 41 40 39 39 39 40 40 40 39 39 40 39 40 40 42 43 44 44 43 43 43
14 15 16 14 12 13 13 15 16 17 18 18 19 21 22 23 25 26 27 29 29 29 29 29 29 29 29 31 33 34 36 37 37 37 38 39 39 39 39 40 40 40 39 38 38 39 39 39 39 39 39 39 39 38 38 39 41 41 42 42 41 42
18 18 17 15 14 15 16 18 19 19 18 18 19 20 21 22 24 26 28 30 30 30 30 29 30 30 31 32 34 36 36 36 36 37 38 38 38 38 39 39 38 38 38 38 38 38 38 38 39 39 39 38 38 37 36 36 38 38 38 40 40 40
21 20 19 17 17 18 20 20 21 21 20 20 20 21 22 23 25 27 28 30 30 30 30 30 30 31 32 33 35 36 36 35 36 37 37 37 38 38 38 38 37 37 38 38 38 38 38 38 39 39 38 37 36 35 34 34 34 33 33 36 38 39
24 23 21 20 20 21 22 22 22 22 21 22 22 22 24 26 27 28 29 30 30 30 30 31 31 31 33 34 35 35 35 35 35 36 36 36 37 37 37 36 36 36 37 38 38 38 38 38 39 39 38 37 36 35 33 32 32 30 29 33 37 39
26 25 25 24 24 24 23 23 23 22 22 22 23 24 26 28 28 29 29 30 30 30 31 31 31 32 33 34 34 34 34 35 34 34 35 35 36 36 36 35 35 35 37 38 38 38 38 39 40 39 37 36 36 35 34 32 31 30 29 31 35 38
26 27 28 28 26 26 25 25 24 23 22 23 24 26 28 29 30 30 30 30 30 30 30 31 31 32 33 33 33 34 34 33 33 33 34 34 34 33 34 34 34 35 36 38 39 39 39 40 41 39 37 36 35 34 34 33 32 31 30 31 35 38
26 28 30 30 29 28 28 26 24 23 22 23 25 27 29 30 31 30 30 30 30 30 30 31 31 32 32 32 32 33 32 32 32 33 34 33 32 32 33 33 33 34 36 37 38 39 40 40 40 39 36 34 34 34 33 33 33 33 32 33 35 37
27 28 29 30 30 30 29 27 24 22 23 24 26 28 30 31 31 31 30 30 30 30 31 32 32 31 31 31 31 31 31 31 32 33 33 32 32 32 32 32 33 34 35 36 37 38 39 40 39 37 35 33 33 34 34 34 35 36 36 36 37 38
30 30 30 30 31 31 29 26 23 22 23 25 27 29 31 32 32 31 31 30 30 31 31 32 32 32 31 31 30 30 30 31 31 32 32 31 30 31 32 32 33 33 33 35 36 37 39 39 38 36 34 33 33 33 33 34 35 36 37 37 37 37
30 31 30 29 29 30 29 25 23 23 24 26 28 29 31 32 32 32 31 31 31 31 32 32 32 32 31 31 30 29 30 30 30 31 31 30 28 29 30 31 32 32 32 34 35 36 37 39 37 34 32 31 29 29 30 32 33 34 34 34 34 35
28 30 29 28 27 29 29 26 24 24 25 27 28 29 31 32 33 32 32 31 31 31 32 32 31 31 31 30 30 30 30 30 29 29 30 30 29 28 28 30 31 31 30 32 33 32 32 34 34 32 30 29 28 27 27 29 30 31 32 33 34 36
27 28 27 26 28 30 30 27 25 25 27 28 28 29 31 32 33 33 32 31 31 31 31 31 30 30 29 29 29 30 31 31 30 28 26 27 29 29 27 27 28 28 27 28 30 30 31 31 30 29 28 27 26 26 27 29 30 31 32 33 35 37
27 27 26 27 30 31 30 27 26 26 28 28 28 29 31 32 32 32 31 31 31 30 30 29 29 28 28 28 28 29 30 32 33 30 26 24 24 26 27 26 26 26 27 27 27 29 30 29 28 27 26 24 24 25 28 30 31 31 31 31 33 34
27 27 27 29 31 31 29 27 27 28 28 29 29 29 31 31 32 31 30 30 30 29 29 28 28 28 28 28 28 29 30 31 32 33 31 27 23 22 23 24 25 26 26 26 26 26 27 27 26 24 23 21 23 26 28 29 29 28 28 29 29 29
27 28 29 30 31 31 30 28 28 28 29 29 29 30 31 31 31 30 30 29 29 28 28 27 26 27 27 27 28 29 30 30 30 31 33 32 30 26 22 19 20 23 26 27 26 25 25 25 24 21 20 21 23 25 26 27 26 24 23 24 24 25
28 28 29 31 32 32 30 28 28 29 29 30 30 31 31 31 30 30 29 28 28 28 27 26 26 26 27 27 28 28 29 29 29 29 30 31 32 31 27 22 18 18 21 25 27 25 23 23 21 18 17 19 21 23 24 25 24 23 21 22 23 24
28 28 29 31 32 32 30 27 27 29 30 30 31 30 30 30 30 29 29 28 27 27 26 26 26 26 27 27 28 28 28 28 28 28 29 28 28 29 28 26 22 19 17 20 23 23 21 19 18 16 15 17 19 21 23 24 24 24 24 24 24 25
Wind_Direction
186 186 186 190 193 196 200 203 209 213 216 220 220 222 221 218 218 218 219 220 222 226 226 228 231 232 238 242 246 253 259 269 278 286 292 295 296 296 296 296 298 300 301 304 308 311 313 315 315 316 316 317 317 317 318 318 318 318 319 320 321 322
191 193 194 197 200 203 207 211 215 218 222 224 224 225 224 221 220 219 219 220 220 221 221 223 227 231 239 246 257 271 283 294 301 306 308 307 306 305 304 303 303 304 305 308 309 311 313 314 314 314 315 315 315 315 315 315 315 315 315 316 317 318
197 199 201 204 207 211 214 216 220 222 225 227 226 226 224 222 223 221 221 221 220 223 225 230 239 249 264 277 293 306 313 317 319 319 317 315 314 312 310 310 310 309 310 311 311 312 312 312 312 313 313 313 312 313 313 312 312 312 312 313 313 314
203 205 206 208 212 216 218 221 225 225 227 228 227 226 225 224 225 224 224 225 225 231 236 243 255 267 286 307 319 325 328 328 328 326 323 321 319 317 316 315 314 314 313 313 313 312 312 312 312 312 312 312 312 312 312 312 312 312 311 311 312 312
210 212 213 215 217 220 222 225 228 228 230 230 229 228 227 227 227 226 227 229 231 236 241 249 267 288 309 322 327 329 330 330 329 328 326 324 322 320 319 317 316 316 315 315 315 314 314 314 313 314 314 314 313 313 313 313 312 312 311 311 311 311
218 218 219 221 222 223 226 228 230 231 232 232 232 231 230 229 231 230 230 231 232 239 251 268 287 303 314 320 323 324 327 328 327 327 325 323 322 320 319 318 317 317 316 316 316 316 316 315 315 316 315 315 315 315 314 314 313 312 312 311 311 311
223 223 224 225 226 228 230 232 234 235 235 236 235 233 231 232 234 233 232 232 238 249 263 279 292 301 307 311 315 319 323 326 327 327 325 323 322 320 319 318 318 317 316 316 316 316 316 316 316 316 316 316 316 315 315 314 313 312 312 311 312 312
227 227 228 229 230 232 234 237 239 239 238 239 237 235 234 235 235 234 233 237 245 254 264 275 285 292 299 305 311 316 321 325 327 328 326 324 322 319 318 317 316 315 314 313 314 314 314 314 314 314 315 315 315 314 313 313 312 312 311 311 311 312
231 231 233 234 234 236 239 242 245 245 243 241 239 239 237 235 236 236 238 242 248 256 263 272 281 289 298 306 313 318 322 325 327 327 326 324 322 319 317 316 314 313 311 311 311 312 312 312 313 313 313 313 313 312 311 311 311 310 310 310 310 311
236 237 238 238 238 239 242 246 249 249 247 245 244 243 241 239 240 240 241 246 251 258 266 273 282 292 303 310 315 318 320 323 324 325 325 323 321 319 317 315 314 313 311 310 310 311 311 311 311 311 312 311 311 311 310 310 309 309 308 308 308 309
243 244 244 242 241 242 244 247 249 249 248 246 243 244 245 243 242 242 244 248 255 262 269 275 285 296 304 308 312 314 317 320 322 324 323 322 320 318 316 315 314 313 311 310 310 310 311 310 310 311 311 311 311 310 310 309 309 309 308 308 308 308
253 251 250 247 247 248 248 248 249 251 250 247 245 246 247 244 243 244 248 253 259 265 270 276 286 295 300 303 307 310 313 316 320 322 322 320 318 316 315 314 313 312 310 309 309 310 310 310 310 310 311 312 312 311 310 309 309 310 310 309 310 309
259 255 250 249 251 251 250 250 251 253 252 250 249 250 247 244 245 249 251 256 261 266 271 278 284 290 295 299 303 305 308 312 315 319 321 320 317 315 314 313 311 310 309 309 309 309 309 309 309 310 311 311 311 311 311 311 310 311 311 311 311 310
251 249 248 248 250 251 250 250 252 253 253 253 253 251 245 244 247 250 252 256 260 265 271 276 280 286 291 295 298 299 301 306 311 316 318 318 316 314 313 312 310 309 308 307 308 308 308 308 309 310 310 311 311 312 312 312 312 312 312 312 312 311
242 248 250 252 254 255 255 254 255 257 258 258 256 251 245 245 248 250 252 255 259 264 270 274 278 283 287 289 292 293 296 301 307 312 315 316 315 313 312 311 309 308 306 306 307 307 307 308 309 310 311 311 312 313 313 313 312 312 312 312 312 311
247 249 248 248 250 252 254 254 255 258 258 257 254 250 248 249 251 252 254 255 259 263 268 273 277 280 282 284 286 288 292 299 305 310 313 313 313 312 310 309 307 306 306 306 307 308 308 309 310 311 311 312 312 314 314 313 313 313 313 312 312 312
247 247 244 242 240 240 243 246 248 249 248 250 251 251 253 255 255 256 257 258 261 264 268 272 274 275 277 278 281 286 292 298 305 309 311 311 311 310 309 308 306 306 307 308 309 309 309 310 311 311 312 312 313 314 314 313 314 313 313 313 313 314
243 241 238 237 236 237 240 242 242 242 244 249 253 256 258 260 260 261 262 262 264 266 268 270 271 271 272 275 280 286 293 300 305 309 310 310 310 309 309 307 307 308 309 309 310 309 309 310 311 312 312 312 313 314 314 314 314 314 314 314 315 314
238 235 233 233 232 234 239 242 244 248 252 256 259 262 264 265 265 266 266 266 267 267 268 268 268 268 270 274 282 289 295 301 306 308 309 309 309 309 308 307 308 309 310 310 310 310 310 310 311 312 312 313 314 315 315 315 315 314 314 314 314 314
234 229 226 225 226 234 248 259 262 262 261 261 264 268 270 271 272 272 271 270 269 268 267 266 265 266 271 277 285 291 297 303 306 307 307 308 308 308 307 307 308 309 309 310 310 310 310 310 311 312 313 313 315 316 316 316 315 315 314 314 314 313
227 226 226 228 238 257 273 281 280 275 270 268 267 269 270 272 274 275 273 271 269 267 265 264 265 268 274 282 288 294 300 304 305 305 306 306 306 306 307 308 308 309 309 309 309 309 309 309 310 312 313 314 316 317 318 317 315 315 314 313 311 311
237 242 243 246 260 277 286 289 287 284 280 276 272 271 271 271 273 273 271 269 267 265 264 264 267 272 278 285 291 297 301 303 304 304 305 305 305 306 307 308 308 308 308 309 309 309 309 309 310 312 313 315 318 318 317 315 313 312 312 310 311 312
252 253 253 258 272 283 288 287 286 285 283 280 279 280 278 274 272 271 269 268 266 265 265 266 270 276 282 288 294 299 301 301 303 304 304 304 305 306 307 307 307 308 308 309 309 308 309 310 311 312 314 317 318 317 315 312 311 311 311 310 310 309
256 253 255 264 275 281 283 282 280 281 280 280 282 283 279 274 272 270 268 267 265 265 266 269 273 278 285 291 295 298 299 301 302 303 303 303 304 305 306 306 307 307 308 309 308 308 309 310 311 312 314 317 317 315 312 310 310 310 309 306 305 303
257 255 259 265 271 274 275 275 275 275 277 279 281 279 276 273 271 269 267 266 265 266 267 271 275 282 288 293 296 297 299 300 301 301 302 303 303 304 305 306 306 307 308 308 308 309 310 310 310 312 315 317 316 314 314 313 312 311 308 304 303 303
258 257 260 264 267 269 271 271 271 272 274 277 278 275 274 272 270 268 267 266 266 267 269 273 279 286 291 293 295 296 298 299 300 300 301 302 302 303 304 305 306 306 307 308 308 309 310 310 310 313 316 318 317 316 317 317 314 314 313 306 303 303
259 258 260 263 265 267 268 268 268 271 276 278 277 275 273 271 269 267 267 267 267 269 273 278 284 289 292 293 294 296 297 298 299 300 300 301 302 303 303 305 306 306 306 307 308 309 309 309 311 314 318 320 319 319 319 317 316 318 316 307 303 303
258 258 260 262 263 265 266 266 267 273 278 280 278 276 274 271 269 268 268 268 270 272 277 283 287 290 291 292 294 295 297 298 298 299 301 302 303 303 303 304 305 304 305 306 306 307 308 309 311 315 319 321 320 319 319 319 320 322 317 308 303 303
258 258 260 262 264 264 263 262 267 275 280 281 279 277 274 271 269 269 269 270 273 276 282 286 289 290 291 292 294 295 296 297 299 300 302 303 303 303 303 304 304 303 304 305 305 306 307 308 312 317 322 323 322 322 323 323 322 321 316 311 309 312
260 260 261 263 263 262 259 260 268 277 280 281 280 277 274 271 269 269 270 272 275 280 284 287 288 289 290 291 293 293 295 297 300 301 302 303 303 303 303 303 302 302 303 303 304 306 309 310 315 321 325 325 324 323 321 319 317 315 314 313 314 315
266 263 264 264 262 258 255 259 269 277 281 282 279 276 273 271 269 270 271 273 278 282 284 285 286 288 290 290 291 293 295 298 301 301 301 302 301 300 301 301 301 303 305 306 308 311 312 312 315 321 322 321 319 317 315 313 313 314 313 313 312 306
270 265 263 263 259 253 252 259 270 277 279 278 276 274 271 269 269 269 271 275 279 282 282 283 285 287 288 289 291 294 297 299 300 301 302 303 302 301 301 302 303 306 307 307 307 308 306 306 311 316 316 315 316 317 315 313 311 308 307 306 304 301
269 262 261 261 256 250 251 259 269 274 275 273 272 270 269 268 268 269 272 276 279 280 281 282 284 285 286 288 292 296 299 301 300 299 300 301 301 301 300 300 300 301 301 299 300 300 299 302 307 311 311 315 320 319 314 309 307 307 306 305 305 305
264 258 258 259 255 250 251 259 267 270 271 270 269 269 268 268 269 271 274 277 277 278 280 281 282 284 286 289 293 296 299 300 301 300 299 296 296 297 297 297 296 295 295 295 295 297 299 303 307 310 314 319 319 313 309 310 314 316 315 312 311 312
260 255 257 257 252 249 252 259 265 269 270 270 270 270 270 270 271 273 275 276 277 278 279 280 281 284 287 290 293 295 297 298 299 301 301 300 297 295 294 295 296 295 294 293 293 295 299 304 308 312 317 318 314 312 316 321 326 326 321 318 317 316
259 257 258 254 250 249 254 260 265 268 271 272 272 272 271 272 273 274 275 276 277 277 278 279 280 283 287 290 292 294 295 296 297 299 301 303 303 300 297 294 293 294 295 295 295 297 301 306 310 314 316 316 316 321 326 329 330 330 325 322 324 325
260 259 257 253 250 252 256 260 264 268 271 273 273 273 274 274 275 275 276 276 276 277 277 279 281 283 286 289 290 292 293 295 296 298 300 302 303 303 304 303 298 293 292 294 296 299 304 308 312 314 316 319 323 327 330 331 333 336 337 338 341 341
261 259 257 254 253 254 257 260 264 269 272 274 274 275 276 276 276 276 275 275 276 277 278 280 282 284 286 288 289 291 292 293 295 297 298 299 300 301 304 306 305 301 296 292 294 299 304 308 310 313 319 325 327 329 332 336 341 347 350 353 354 352